Regional Weather Roundup
Issued by NWS Kansas City/Pleasant Hill, MO

Home | Current Version | Previous Version | Graphics & Text | Print | Product List | Glossary Off
Versions: 1 2 3 4 5 6 7 8 9 10 11 12 13 14 15 16 17 18 19 20 21 22 23 24 25 26 27 28 29 30 31 32 33 34 35 36 37 38 39 40 41 42 43 44 45 46 47 48 49 50

000
ASUS43 KEAX 251611
RWREAX

WEATHER ROUNDUP FOR EASTERN KANSAS AND NORTHWEST MISSOURI
NATIONAL WEATHER SERVICE KANSAS CITY/PLEASANT HILL MO
1000 AM CST THU DEC 25 2014

KSZ040-057-103>105-MOZ028-029-037-043-251700-
...KANSAS CITY METROPOLITAN AREA...

CITY           SKY/WX    TMP DP  RH WIND       PRES   REMARKS
K.C. INTL      PTSUNNY   42  28  57 S22G31    29.78R WCI  33
K.C. DOWNTOWN  SUNNY     42  29  59 S20       29.82R WCI  33
LEES SUMMIT    SUNNY     41  28  60 S18G29    29.82R WCI  32
OLATHE - IXD   SUNNY     38  29  70 S18G28    29.80R WCI  28
OLATHE - OJC   SUNNY     38  29  70 S17G24    29.81R WCI  28
LAWRENCE       SUNNY     41  29  62 S14       29.79R WCI  33

$$

MOZ001>008-011>017-020>025-030>033-038>040-044>046-053-054-251700-
...NORTHERN AND CENTRAL MISSOURI...

CITY           SKY/WX    TMP DP  RH WIND       PRES   REMARKS
ST. JOSEPH     MOSUNNY   41  29  62 S15       29.78R WCI  33
MOSBY          SUNNY     41  30  65 S10       29.82R WCI  35
WARRENSBURG    SUNNY     41  30  65 S15G25    29.86S WCI  33
WHITEMAN AFB   SUNNY     41  30  65 S16G25    29.87F WCI  33
CLINTON        SUNNY     41  32  70 S14G20    29.91F WCI  33
SEDALIA        SUNNY     41  30  65 S17       29.91S WCI  32
WARSAW         NOT AVBL
MARSHALL       SUNNY     41  34  75 S13       29.90S WCI  34
CHILLICOTHE      N/A     41  29  62 S10G21    29.84S WCI  35
MOBERLY        SUNNY     39  30  70 S10       29.91S WCI  32
KIRKSVILLE     MOSUNNY   38  32  79 S12       29.88R WCI  30

$$

MOZ041-047>049-056>058-063>065-088>090-097-251700-
...EASTERN AND SOUTHERN MISSOURI...

CITY           SKY/WX    TMP DP  RH WIND       PRES   REMARKS
ST. LOUIS INTL MOSUNNY   42  31  64 S7        30.05R
SPIRIT OF STL  SUNNY     41  31  67 S6        30.03R
COLUMBIA       SUNNY     38  31  76 S17       29.96R WCI  28
JEFFERSON CITY SUNNY     40  31  70 S7        29.99R
MEXICO         SUNNY     39  36  87 S15G21    29.96R WCI  31
HANNIBAL       MOSUNNY   41  30  65 S16       29.95S WCI  33
ROLLA          SUNNY     40  30  67 S17G24    29.98R WCI  31
LEBANON        MOSUNNY   39  30  70 S15G21    29.98R WCI  31
OSAGE BEACH    SUNNY     37  28  70 S9        29.97S WCI  31
SPRINGFIELD    SUNNY     40  31  70 S21G26    29.96R WCI  30
BRANSON        MOSUNNY   41  30  65 S8        30.02R
NEVADA         SUNNY     41  32  70 S21G26    29.91R WCI  32
JOPLIN         SUNNY     45  27  49 S24G35    29.91S
WEST PLAINS    SUNNY     40  31  70 S9        30.05R WCI  34

$$

IAZ060-094-KSZ022-034>040-054-083-096-NEZ052-066-093-251700-
...KANSAS...SOUTHEAST NEBRASKA AND IOWA...

CITY           SKY/WX    TMP DP  RH WIND       PRES   REMARKS
TOPEKA         SUNNY     42  28  57 S16G23    29.76R WCI  34
MANHATTAN      SUNNY     42  26  53 S18G29    29.66S WCI  34
EMPORIA        SUNNY     37  28  70 S25G32    29.73R WCI  25
CHANUTE        SUNNY     42  30  62 S23G31    29.83S WCI  33
WICHITA        MOSUNNY   43  26  51 S24       29.67R WCI  33
OMAHA          PTSUNNY   37  28  70 S15       29.70R WCI  28
LINCOLN        MOSUNNY   38  27  64 S13       29.65R WCI  30
FALLS CITY     MOSUNNY   38  28  67 S16G24    29.71R WCI  29
LAMONI         CLOUDY    35  28  75 S13       29.78R WCI  26
DES MOINES     CLOUDY    37  28  70 S13       29.77R WCI  29

$$



USA.gov is the U.S. government's official web portal to all federal, state and local government web resources and services.